Back to catalog

STARLINK-37847

AliveCommunicationsVLEO
NORAD 100037·PAYLOAD·🇺🇸 United States

Launched Jul 14, 2026 from Cape Canaveral Space Force Station

Loading…

Next Passes (next 24 hours)

TLE

FreshSource: Space-Track

Epoch: Sep 13, 2026, 18:06 UTC

1 A0037U 26161K   26256.75459370  .00019964  00000-0  60038-3 0  9996
2 A0037  53.1623  29.3395 0001240  85.2955 274.8189 15.34401837  9570

Track STARLINK-37847 in real time with AllMySat

Download on the App Store